| time (UTC) | temp F | wind direction | speed MPH | gust MPH | rain 1hr in | rain 24hr in | rain mn in | humidity % | barometer mb |
| 20260507230644 | 64 | 355 | 3.0 | 10.0 | 0.00 | 0.39 | 0.26 | 75 | 966.3 |
| 20260507230139 | 64 | 12 | 3.0 | 12.0 | 0.00 | 0.39 | 0.26 | 75 | 966.2 |
| 20260507225634 | 64 | 5 | 3.0 | 12.0 | 0.00 | 0.39 | 0.26 | 76 | 966.1 |
| 20260507225127 | 65 | 346 | 1.0 | 10.0 | 0.00 | 0.39 | 0.26 | 77 | 965.9 |
| 20260507224621 | 65 | 17 | 0.0 | 1.0 | 0.00 | 0.39 | 0.26 | 86 | 965.8 |
| 20260507223609 | 65 | 32 | 0.0 | 2.0 | 0.00 | 0.39 | 0.26 | 88 | 965.7 |
| 20260507222050 | 65 | 76 | 3.0 | 8.0 | 0.00 | 0.39 | 0.26 | 89 | 965.4 |
| 20260507221544 | 65 | 55 | 3.0 | 9.0 | 0.00 | 0.39 | 0.26 | 89 | 965.3 |
| 20260507221038 | 65 | 79 | 3.0 | 10.0 | 0.00 | 0.39 | 0.26 | 89 | 965.1 |
| 20260507220027 | 64 | 74 | 2.0 | 6.0 | 0.00 | 0.39 | 0.26 | 91 | 965.1 |
| 20260507215521 | 64 | 70 | 3.0 | 8.0 | 0.00 | 0.39 | 0.26 | 91 | 964.9 |
| 20260507215014 | 63 | 95 | 4.0 | 10.0 | 0.00 | 0.39 | 0.26 | 91 | 965.0 |
| 20260507214508 | 63 | 49 | 4.0 | 10.0 | 0.00 | 0.39 | 0.26 | 91 | 965.1 |
| 20260507214002 | 63 | 45 | 4.0 | 12.0 | 0.00 | 0.39 | 0.26 | 91 | 965.1 |
| 20260507213457 | 63 | 92 | 2.0 | 12.0 | 0.00 | 0.39 | 0.26 | 91 | 965.0 |
| 20260507212951 | 63 | 55 | 1.0 | 10.0 | 0.00 | 0.39 | 0.26 | 91 | 964.8 |
| 20260507212444 | 63 | 127 | 2.0 | 7.0 | 0.00 | 0.39 | 0.26 | 91 | 964.6 |
| 20260507211939 | 64 | 147 | 2.0 | 7.0 | 0.00 | 0.39 | 0.26 | 92 | 964.7 |
| 20260507211432 | 64 | 77 | 3.0 | 10.0 | 0.00 | 0.39 | 0.26 | 91 | 964.7 |
| 20260507210421 | 64 | 74 | 5.0 | 11.0 | 0.00 | 0.39 | 0.26 | 91 | 964.5 |
| 20260507205915 | 64 | 65 | 5.0 | 11.0 | 0.00 | 0.39 | 0.26 | 91 | 964.4 |
| 20260507205409 | 64 | 84 | 4.0 | 13.0 | 0.00 | 0.39 | 0.26 | 90 | 964.5 |
| 20260507204357 | 64 | 47 | 6.0 | 12.0 | 0.00 | 0.39 | 0.26 | 90 | 964.2 |
| 20260507203345 | 65 | 118 | 6.0 | 16.0 | 0.00 | 0.39 | 0.26 | 89 | 964.0 |
| 20260507202843 | 66 | 60 | 7.0 | 15.0 | 0.00 | 0.39 | 0.26 | 88 | 963.9 |
| 20260507202343 | 67 | 88 | 8.0 | 18.0 | 0.00 | 0.39 | 0.26 | 89 | 964.0 |
| 20260507201843 | 66 | 72 | 8.0 | 18.0 | 0.00 | 0.39 | 0.26 | 89 | 963.9 |
| 20260507201343 | 66 | 88 | 8.0 | 13.0 | 0.00 | 0.39 | 0.26 | 89 | 963.8 |
| 20260507200345 | 67 | 82 | 7.0 | 14.0 | 0.00 | 0.39 | 0.26 | 91 | 963.8 |
| 20260507195842 | 66 | 82 | 8.0 | 14.0 | 0.00 | 0.39 | 0.26 | 91 | 963.8 |
| 20260507195343 | 66 | 71 | 9.0 | 15.0 | 0.00 | 0.39 | 0.26 | 91 | 963.6 |
| 20260507194843 | 66 | 45 | 9.0 | 15.0 | 0.01 | 0.39 | 0.26 | 90 | 963.6 |
| 20260507193843 | 66 | 84 | 8.0 | 18.0 | 0.02 | 0.39 | 0.26 | 92 | 963.7 |
| 20260507193343 | 66 | 82 | 7.0 | 14.0 | 0.02 | 0.39 | 0.26 | 92 | 963.7 |
| 20260507192843 | 66 | 89 | 8.0 | 15.0 | 0.02 | 0.39 | 0.26 | 93 | 963.8 |
| 20260507192343 | 66 | 80 | 9.0 | 15.0 | 0.02 | 0.39 | 0.26 | 92 | 963.9 |
| 20260507191343 | 68 | 24 | 5.0 | 13.0 | 0.02 | 0.39 | 0.26 | 88 | 964.0 |
| 20260507190337 | 71 | 158 | 0.0 | 0.0 | 0.02 | 0.39 | 0.26 | 92 | 963.9 |
| 20260507185837 | 71 | 165 | 0.0 | 0.0 | 0.02 | 0.39 | 0.26 | 91 | 963.6 |
| 20260507185337 | 71 | 165 | 0.0 | 0.0 | 0.02 | 0.39 | 0.26 | 91 | 963.6 |
| 20260507184835 | 71 | 165 | 0.0 | 2.0 | 0.01 | 0.38 | 0.25 | 90 | 963.4 |
| 20260507184335 | 71 | 165 | 1.0 | 4.0 | 0.01 | 0.38 | 0.25 | 88 | 963.5 |
| 20260507183837 | 72 | 165 | 1.0 | 7.0 | 0.00 | 0.37 | 0.24 | 84 | 963.4 |
| 20260507183333 | 72 | 165 | 1.0 | 7.0 | 0.00 | 0.37 | 0.24 | 84 | 963.8 |
| 20260507182833 | 72 | 216 | 0.0 | 4.0 | 0.00 | 0.37 | 0.24 | 82 | 963.7 |
| 20260507182331 | 72 | 216 | 1.0 | 6.0 | 0.00 | 0.37 | 0.24 | 82 | 963.6 |
| 20260507181830 | 72 | 216 | 2.0 | 9.0 | 0.00 | 0.37 | 0.24 | 82 | 963.7 |
| 20260507181330 | 73 | 209 | 2.0 | 10.0 | 0.00 | 0.37 | 0.24 | 82 | 963.7 |
| 20260507180829 | 73 | 188 | 2.0 | 10.0 | 0.00 | 0.37 | 0.24 | 81 | 963.6 |
| 20260507180328 | 73 | 229 | 1.0 | 6.0 | 0.00 | 0.37 | 0.24 | 82 | 963.5 |
| 20260507175329 | 73 | 126 | 2.0 | 8.0 | 0.00 | 0.37 | 0.24 | 83 | 963.7 |
| 20260507174324 | 73 | 238 | 2.0 | 11.0 | 0.00 | 0.37 | 0.24 | 81 | 963.7 |
| 20260507173824 | 74 | 236 | 2.0 | 11.0 | 0.00 | 0.37 | 0.24 | 81 | 963.7 |
| 20260507173325 | 73 | 201 | 2.0 | 7.0 | 0.00 | 0.37 | 0.24 | 83 | 963.7 |
| 20260507172824 | 73 | 217 | 2.0 | 8.0 | 0.00 | 0.37 | 0.24 | 81 | 963.7 |
| 20260507172324 | 73 | 310 | 2.0 | 8.0 | 0.00 | 0.37 | 0.24 | 81 | 963.9 |
| 20260507171326 | 73 | 222 | 1.0 | 6.0 | 0.00 | 0.37 | 0.24 | 85 | 964.0 |
| 20260507170321 | 72 | 270 | 3.0 | 12.0 | 0.00 | 0.37 | 0.24 | 83 | 964.1 |
| 20260507165320 | 72 | 205 | 2.0 | 9.0 | 0.00 | 0.38 | 0.24 | 87 | 964.3 |
| 20260507164821 | 71 | 181 | 2.0 | 9.0 | 0.00 | 0.39 | 0.24 | 88 | 964.4 |
| 20260507164321 | 71 | 179 | 2.0 | 11.0 | 0.00 | 0.39 | 0.24 | 88 | 964.6 |
| 20260507163321 | 71 | 131 | 2.0 | 9.0 | 0.00 | 0.39 | 0.24 | 89 | 964.7 |
| 20260507162820 | 71 | 261 | 2.0 | 9.0 | 0.00 | 0.39 | 0.24 | 89 | 964.7 |
| 20260507162322 | 70 | 191 | 1.0 | 7.0 | 0.00 | 0.39 | 0.24 | 90 | 964.8 |
| 20260507161818 | 70 | 298 | 1.0 | 7.0 | 0.00 | 0.39 | 0.24 | 90 | 964.9 |
| 20260507161317 | 69 | 310 | 1.0 | 7.0 | 0.00 | 0.39 | 0.24 | 90 | 964.8 |
| 20260507160816 | 69 | 310 | 1.0 | 7.0 | 0.00 | 0.39 | 0.24 | 91 | 964.7 |
| 20260507160317 | 69 | 310 | 1.0 | 7.0 | 0.00 | 0.39 | 0.24 | 92 | 964.8 |
| 20260507155816 | 69 | 118 | 0.0 | 3.0 | 0.00 | 0.39 | 0.24 | 92 | 964.7 |
| 20260507155317 | 69 | 118 | 0.0 | 3.0 | 0.00 | 0.39 | 0.24 | 92 | 964.7 |
| 20260507154818 | 68 | 130 | 0.0 | 5.0 | 0.00 | 0.39 | 0.24 | 93 | 964.6 |
| 20260507154316 | 68 | 130 | 0.0 | 5.0 | 0.00 | 0.39 | 0.24 | 93 | 964.4 |
| 20260507153816 | 68 | 164 | 0.0 | 4.0 | 0.00 | 0.39 | 0.24 | 93 | 964.6 |
| 20260507153316 | 67 | 164 | 1.0 | 6.0 | 0.00 | 0.40 | 0.24 | 93 | 964.6 |
| 20260507152816 | 67 | 180 | 0.0 | 6.0 | 0.00 | 0.40 | 0.24 | 93 | 964.6 |
| 20260507152315 | 67 | 279 | 0.0 | 4.0 | 0.00 | 0.40 | 0.24 | 92 | 964.8 |
| 20260507151313 | 66 | 189 | 1.0 | 5.0 | 0.00 | 0.41 | 0.24 | 90 | 965.3 |
| 20260507150812 | 66 | 179 | 0.0 | 5.0 | 0.00 | 0.41 | 0.24 | 89 | 965.1 |
| 20260507150310 | 65 | 280 | 0.0 | 2.0 | 0.00 | 0.41 | 0.24 | 88 | 965.0 |
| 20260507145811 | 65 | 280 | 1.0 | 4.0 | 0.00 | 0.41 | 0.24 | 88 | 965.0 |
| 20260507145308 | 65 | 313 | 1.0 | 4.0 | 0.00 | 0.41 | 0.24 | 88 | 965.1 |
| 20260507144807 | 65 | 311 | 0.0 | 4.0 | 0.00 | 0.41 | 0.24 | 88 | 965.2 |
| 20260507144306 | 64 | 303 | 0.0 | 2.0 | 0.00 | 0.41 | 0.24 | 88 | 965.4 |
| 20260507143807 | 64 | 150 | 0.0 | 2.0 | 0.00 | 0.41 | 0.24 | 87 | 965.5 |
| 20260507142806 | 64 | 314 | 0.0 | 0.0 | 0.00 | 0.41 | 0.24 | 87 | 965.4 |
| 20260507141754 | 64 | 299 | 0.0 | 2.0 | 0.00 | 0.41 | 0.24 | 87 | 965.4 |
| 20260507141248 | 64 | 299 | 0.0 | 2.0 | 0.00 | 0.41 | 0.24 | 87 | 965.6 |
| 20260507140742 | 64 | 299 | 0.0 | 0.0 | 0.00 | 0.41 | 0.24 | 87 | 965.3 |
| 20260507140236 | 64 | 299 | 0.0 | 0.0 | 0.00 | 0.41 | 0.24 | 87 | 965.3 |
| 20260507135730 | 63 | 299 | 0.0 | 0.0 | 0.00 | 0.41 | 0.24 | 87 | 965.0 |
| 20260507135225 | 63 | 299 | 0.0 | 0.0 | 0.00 | 0.41 | 0.24 | 87 | 964.9 |
| 20260507134718 | 63 | 299 | 0.0 | 1.0 | 0.00 | 0.41 | 0.24 | 87 | 965.2 |
| 20260507134212 | 63 | 299 | 0.0 | 1.0 | 0.00 | 0.41 | 0.24 | 87 | 965.1 |
| 20260507133705 | 63 | 299 | 0.0 | 0.0 | 0.00 | 0.41 | 0.24 | 87 | 965.1 |
| 20260507132653 | 63 | 294 | 0.0 | 0.0 | 0.01 | 0.41 | 0.24 | 87 | 965.0 |
| 20260507132147 | 63 | 294 | 0.0 | 2.0 | 0.01 | 0.41 | 0.24 | 87 | 965.1 |
| 20260507131136 | 63 | 229 | 0.0 | 0.0 | 0.03 | 0.41 | 0.24 | 87 | 965.4 |
| 20260507130630 | 62 | 161 | 0.0 | 0.0 | 0.03 | 0.41 | 0.24 | 87 | 965.1 |
| 20260507130124 | 62 | 161 | 0.0 | 0.0 | 0.05 | 0.41 | 0.24 | 87 | 965.1 |
| 20260507125618 | 62 | 161 | 0.0 | 0.0 | 0.06 | 0.41 | 0.24 | 87 | 965.1 |
| 20260507125112 | 62 | 161 | 0.0 | 0.0 | 0.08 | 0.41 | 0.24 | 87 | 965.2 |
| 20260507124605 | 62 | 161 | 0.0 | 0.0 | 0.09 | 0.41 | 0.24 | 87 | 965.3 |
| 20260507124101 | 62 | 161 | 0.0 | 0.0 | 0.09 | 0.41 | 0.24 | 87 | 965.4 |
| 20260507123554 | 62 | 161 | 0.0 | 0.0 | 0.09 | 0.40 | 0.24 | 87 | 965.4 |
| 20260507123047 | 62 | 161 | 0.0 | 0.0 | 0.10 | 0.40 | 0.23 | 87 | 965.6 |
| 20260507122541 | 62 | 161 | 0.0 | 0.0 | 0.10 | 0.40 | 0.23 | 87 | 965.4 |
| 20260507122036 | 62 | 161 | 0.0 | 0.0 | 0.10 | 0.39 | 0.23 | 87 | 965.7 |
| 20260507121530 | 62 | 223 | 0.0 | 0.0 | 0.10 | 0.38 | 0.22 | 87 | 966.1 |
| 20260507121025 | 62 | 223 | 0.0 | 0.0 | 0.11 | 0.38 | 0.21 | 87 | 966.4 |
| 20260507120518 | 62 | 223 | 0.0 | 0.0 | 0.10 | 0.37 | 0.21 | 87 | 966.8 |
| 20260507120012 | 62 | 223 | 0.0 | 0.0 | 0.09 | 0.36 | 0.19 | 87 | 966.9 |
| 20260507115506 | 62 | 223 | 0.0 | 0.0 | 0.07 | 0.34 | 0.18 | 87 | 967.1 |
| 20260507114455 | 62 | 223 | 0.0 | 0.0 | 0.05 | 0.32 | 0.15 | 88 | 966.6 |
| 20260507113948 | 62 | 223 | 0.0 | 0.0 | 0.04 | 0.31 | 0.15 | 88 | 966.2 |
| 20260507113442 | 62 | 223 | 0.0 | 0.0 | 0.04 | 0.31 | 0.14 | 88 | 966.0 |
| 20260507112935 | 62 | 223 | 0.0 | 0.0 | 0.03 | 0.30 | 0.13 | 88 | 965.8 |
| 20260507112429 | 62 | 223 | 0.0 | 0.0 | 0.03 | 0.30 | 0.13 | 88 | 965.7 |
| 20260507110911 | 61 | 223 | 0.0 | 1.0 | 0.00 | 0.27 | 0.10 | 88 | 966.6 |
| 20260507110406 | 61 | 223 | 0.0 | 2.0 | 0.00 | 0.27 | 0.10 | 88 | 966.3 |
| 20260507105900 | 61 | 223 | 0.0 | 2.0 | 0.00 | 0.27 | 0.10 | 88 | 966.0 |
| 20260507105354 | 61 | 223 | 0.0 | 2.0 | 0.00 | 0.27 | 0.10 | 88 | 965.6 |
| 20260507103835 | 61 | 223 | 0.0 | 0.0 | 0.00 | 0.27 | 0.10 | 88 | 965.4 |
| 20260507103329 | 61 | 223 | 0.0 | 0.0 | 0.00 | 0.27 | 0.10 | 88 | 965.3 |
| 20260507102824 | 61 | 223 | 0.0 | 0.0 | 0.00 | 0.27 | 0.10 | 88 | 965.0 |
| 20260507102318 | 61 | 223 | 0.0 | 0.0 | 0.00 | 0.27 | 0.10 | 88 | 965.1 |
| 20260507101813 | 61 | 223 | 0.0 | 0.0 | 0.00 | 0.27 | 0.10 | 88 | 965.2 |
| 20260507101306 | 61 | 223 | 0.0 | 0.0 | 0.00 | 0.27 | 0.10 | 88 | 965.6 |
| 20260507100800 | 61 | 223 | 0.0 | 0.0 | 0.00 | 0.27 | 0.10 | 88 | 965.5 |
| 20260507100254 | 61 | 223 | 0.0 | 0.0 | 0.00 | 0.27 | 0.10 | 88 | 965.4 |
| 20260507095748 | 61 | 223 | 0.0 | 0.0 | 0.00 | 0.27 | 0.10 | 88 | 965.5 |
| 20260507095242 | 61 | 223 | 0.0 | 0.0 | 0.00 | 0.27 | 0.10 | 88 | 965.3 |
| 20260507094735 | 61 | 223 | 0.0 | 0.0 | 0.00 | 0.27 | 0.10 | 88 | 965.3 |
| 20260507093723 | 61 | 223 | 0.0 | 0.0 | 0.00 | 0.27 | 0.10 | 88 | 965.5 |
| 20260507093217 | 61 | 223 | 0.0 | 0.0 | 0.00 | 0.27 | 0.10 | 88 | 965.6 |
| 20260507092711 | 61 | 223 | 0.0 | 0.0 | 0.00 | 0.27 | 0.10 | 88 | 965.8 |
| 20260507092206 | 62 | 223 | 0.0 | 0.0 | 0.00 | 0.27 | 0.10 | 88 | 965.7 |
| 20260507091706 | 62 | 223 | 0.0 | 2.0 | 0.00 | 0.27 | 0.10 | 88 | 965.5 |
| 20260507091206 | 61 | 223 | 0.0 | 2.0 | 0.00 | 0.27 | 0.10 | 88 | 965.6 |
| 20260507090706 | 61 | 223 | 0.0 | 0.0 | 0.00 | 0.27 | 0.10 | 88 | 965.5 |
| 20260507090204 | 61 | 223 | 0.0 | 0.0 | 0.00 | 0.27 | 0.10 | 88 | 965.4 |
| 20260507085702 | 61 | 223 | 0.0 | 0.0 | 0.00 | 0.27 | 0.10 | 88 | 965.7 |
| 20260507085200 | 61 | 223 | 0.0 | 0.0 | 0.00 | 0.27 | 0.10 | 88 | 965.6 |
| 20260507084657 | 62 | 223 | 0.0 | 0.0 | 0.00 | 0.27 | 0.10 | 88 | 965.5 |
| 20260507084200 | 62 | 223 | 0.0 | 0.0 | 0.00 | 0.27 | 0.10 | 88 | 965.5 |
| 20260507083659 | 61 | 223 | 0.0 | 0.0 | 0.00 | 0.27 | 0.10 | 88 | 965.4 |
| 20260507083156 | 61 | 223 | 0.0 | 0.0 | 0.00 | 0.27 | 0.10 | 88 | 965.7 |
| 20260507082653 | 62 | 223 | 0.0 | 0.0 | 0.00 | 0.27 | 0.10 | 88 | 965.9 |
| 20260507082152 | 62 | 223 | 0.0 | 0.0 | 0.00 | 0.27 | 0.10 | 88 | 966.1 |
| 20260507081649 | 62 | 223 | 0.0 | 0.0 | 0.00 | 0.27 | 0.10 | 88 | 965.9 |
| 20260507081151 | 62 | 223 | 0.0 | 0.0 | 0.00 | 0.27 | 0.10 | 89 | 965.7 |
| 20260507080148 | 62 | 223 | 0.0 | 0.0 | 0.00 | 0.27 | 0.10 | 88 | 965.7 |
| 20260507075146 | 62 | 223 | 0.0 | 0.0 | 0.01 | 0.27 | 0.10 | 89 | 965.6 |
| 20260507074648 | 62 | 223 | 0.0 | 0.0 | 0.01 | 0.27 | 0.10 | 89 | 965.5 |
| 20260507074142 | 62 | 223 | 0.0 | 0.0 | 0.01 | 0.27 | 0.10 | 89 | 965.6 |
| 20260507073643 | 62 | 223 | 0.0 | 0.0 | 0.03 | 0.27 | 0.10 | 89 | 965.8 |
| 20260507073140 | 62 | 223 | 0.0 | 0.0 | 0.03 | 0.27 | 0.10 | 89 | 965.7 |
| 20260507072640 | 62 | 223 | 0.0 | 0.0 | 0.03 | 0.27 | 0.10 | 89 | 965.7 |
| 20260507071136 | 62 | 223 | 0.0 | 0.0 | 0.03 | 0.27 | 0.10 | 89 | 965.9 |
| 20260507070135 | 62 | 223 | 0.0 | 0.0 | 0.03 | 0.27 | 0.10 | 89 | 966.2 |
| 20260507065634 | 62 | 223 | 0.0 | 0.0 | 0.03 | 0.27 | 0.10 | 89 | 966.3 |
| 20260507065134 | 62 | 223 | 0.0 | 0.0 | 0.02 | 0.26 | 0.09 | 89 | 966.6 |
| 20260507064132 | 62 | 223 | 0.0 | 2.0 | 0.02 | 0.26 | 0.09 | 89 | 966.8 |
| 20260507063631 | 62 | 223 | 0.0 | 0.0 | 0.00 | 0.24 | 0.07 | 89 | 966.4 |
| 20260507063129 | 62 | 223 | 0.0 | 0.0 | 0.00 | 0.24 | 0.07 | 89 | 967.0 |
| 20260507062630 | 62 | 223 | 0.0 | 0.0 | 0.01 | 0.24 | 0.07 | 89 | 966.5 |
| 20260507062129 | 62 | 223 | 0.0 | 0.0 | 0.02 | 0.24 | 0.07 | 89 | 966.5 |
| 20260507061630 | 62 | 223 | 0.0 | 0.0 | 0.03 | 0.24 | 0.07 | 89 | 966.5 |
| 20260507061127 | 62 | 223 | 0.0 | 0.0 | 0.03 | 0.24 | 0.07 | 89 | 966.7 |
| 20260507060629 | 62 | 223 | 0.0 | 0.0 | 0.03 | 0.24 | 0.07 | 89 | 966.9 |
| 20260507055627 | 62 | 223 | 0.0 | 0.0 | 0.03 | 0.24 | 0.07 | 89 | 967.2 |
| 20260507055129 | 62 | 223 | 0.0 | 3.0 | 0.03 | 0.24 | 0.07 | 89 | 967.1 |
| 20260507054627 | 62 | 223 | 1.0 | 6.0 | 0.03 | 0.24 | 0.07 | 89 | 967.3 |
| 20260507053624 | 63 | 239 | 4.0 | 8.0 | 0.04 | 0.24 | 0.07 | 89 | 967.6 |
| 20260507053123 | 63 | 237 | 2.0 | 7.0 | 0.05 | 0.24 | 0.07 | 89 | 968.0 |
| 20260507052124 | 63 | 166 | 0.0 | 0.0 | 0.05 | 0.22 | 0.05 | 89 | 968.1 |
| 20260507051625 | 63 | 166 | 0.0 | 0.0 | 0.04 | 0.21 | 0.04 | 89 | 968.2 |
| 20260507051123 | 63 | 166 | 0.0 | 0.0 | 0.04 | 0.21 | 0.04 | 90 | 968.0 |
| 20260507050624 | 63 | 166 | 0.0 | 0.0 | 0.04 | 0.21 | 0.04 | 89 | 968.1 |
| 20260507050124 | 63 | 167 | 0.0 | 0.0 | 0.04 | 0.21 | 0.04 | 89 | 968.3 |
| 20260507045624 | 63 | 167 | 0.0 | 0.0 | 0.04 | 0.21 | 0.04 | 90 | 968.4 |
| 20260507045120 | 63 | 167 | 0.0 | 0.0 | 0.04 | 0.21 | 0.04 | 90 | 968.3 |
| 20260507044619 | 63 | 167 | 0.0 | 4.0 | 0.04 | 0.21 | 0.04 | 90 | 968.2 |
| 20260507044120 | 63 | 167 | 0.0 | 4.0 | 0.03 | 0.20 | 0.03 | 90 | 968.1 |
| 20260507043621 | 63 | 257 | 0.0 | 1.0 | 0.03 | 0.20 | 0.03 | 90 | 968.3 |
| 20260507043120 | 63 | 257 | 0.0 | 1.0 | 0.02 | 0.19 | 0.02 | 90 | 968.8 |
| 20260507042120 | 63 | 257 | 0.0 | 0.0 | 0.00 | 0.17 | 0.00 | 90 | 968.6 |
| 20260507041619 | 63 | 257 | 0.0 | 0.0 | 0.00 | 0.17 | 0.00 | 90 | 968.7 |
| 20260507041120 | 63 | 257 | 0.0 | 0.0 | 0.00 | 0.17 | 0.00 | 90 | 968.5 |
| 20260507040618 | 64 | 257 | 0.0 | 0.0 | 0.00 | 0.17 | 0.00 | 90 | 967.9 |
| 20260507040118 | 64 | 257 | 0.0 | 0.0 | 0.00 | 0.17 | 0.00 | 90 | 968.1 |
| 20260507035618 | 64 | 257 | 0.0 | 0.0 | 0.00 | 0.17 | 0.17 | 90 | 968.1 |
| 20260507035118 | 64 | 257 | 0.0 | 0.0 | 0.00 | 0.17 | 0.17 | 90 | 968.3 |
| 20260507034617 | 64 | 257 | 0.0 | 0.0 | 0.01 | 0.17 | 0.17 | 90 | 968.2 |
| 20260507034118 | 64 | 257 | 0.0 | 3.0 | 0.02 | 0.17 | 0.17 | 90 | 968.2 |
| 20260507033615 | 64 | 257 | 0.0 | 4.0 | 0.02 | 0.17 | 0.17 | 90 | 968.0 |
| 20260507033114 | 64 | 261 | 0.0 | 4.0 | 0.02 | 0.17 | 0.17 | 90 | 967.5 |
| 20260507032614 | 64 | 178 | 1.0 | 7.0 | 0.03 | 0.17 | 0.17 | 90 | 967.5 |
| 20260507032115 | 65 | 178 | 2.0 | 8.0 | 0.03 | 0.17 | 0.17 | 90 | 967.6 |
| 20260507031615 | 65 | 195 | 1.0 | 8.0 | 0.03 | 0.17 | 0.17 | 90 | 967.8 |
| 20260507031114 | 65 | 216 | 2.0 | 8.0 | 0.04 | 0.17 | 0.17 | 90 | 967.6 |
| 20260507030614 | 65 | 185 | 2.0 | 8.0 | 0.04 | 0.17 | 0.17 | 90 | 967.2 |
| 20260507030111 | 65 | 178 | 2.0 | 8.0 | 0.04 | 0.17 | 0.17 | 90 | 966.9 |
| 20260507025611 | 65 | 195 | 2.0 | 8.0 | 0.05 | 0.17 | 0.17 | 90 | 966.9 |
| 20260507025113 | 65 | 232 | 2.0 | 9.0 | 0.05 | 0.17 | 0.17 | 90 | 967.5 |
| 20260507024613 | 65 | 219 | 1.0 | 9.0 | 0.04 | 0.16 | 0.16 | 90 | 968.0 |
| 20260507024112 | 65 | 147 | 0.0 | 4.0 | 0.04 | 0.15 | 0.16 | 90 | 968.3 |
| 20260507022613 | 65 | 236 | 0.0 | 0.0 | 0.03 | 0.14 | 0.14 | 90 | 968.8 |
| 20260507021612 | 65 | 222 | 0.0 | 0.0 | 0.03 | 0.14 | 0.14 | 90 | 968.7 |
| 20260507015611 | 66 | 274 | 0.0 | 0.0 | 0.02 | 0.12 | 0.12 | 91 | 968.5 |
| 20260507015112 | 66 | 274 | 0.0 | 0.0 | 0.03 | 0.12 | 0.12 | 91 | 968.7 |
| 20260507014611 | 66 | 274 | 0.0 | 0.0 | 0.03 | 0.12 | 0.12 | 91 | 968.5 |
| 20260507014111 | 66 | 274 | 0.0 | 0.0 | 0.03 | 0.11 | 0.11 | 91 | 968.7 |
| 20260507013109 | 66 | 227 | 0.0 | 0.0 | 0.03 | 0.11 | 0.11 | 91 | 968.5 |
| 20260507012610 | 66 | 227 | 0.0 | 0.0 | 0.03 | 0.11 | 0.11 | 92 | 968.4 |
| 20260507012110 | 66 | 227 | 0.0 | 0.0 | 0.03 | 0.11 | 0.11 | 92 | 967.8 |
| 20260507011610 | 66 | 227 | 0.0 | 2.0 | 0.04 | 0.11 | 0.11 | 92 | 967.9 |
| 20260507010606 | 66 | 227 | 0.0 | 0.0 | 0.05 | 0.11 | 0.11 | 92 | 967.5 |
| 20260507010104 | 66 | 227 | 0.0 | 0.0 | 0.04 | 0.10 | 0.10 | 92 | 967.5 |
| 20260507005059 | 66 | 195 | 1.0 | 5.0 | 0.04 | 0.09 | 0.09 | 92 | 967.2 |
| 20260507004600 | 66 | 229 | 1.0 | 5.0 | 0.04 | 0.09 | 0.09 | 92 | 967.4 |
| 20260507004059 | 66 | 221 | 1.0 | 7.0 | 0.03 | 0.08 | 0.08 | 92 | 967.6 |
| 20260507003045 | 66 | 91 | 0.0 | 0.0 | 0.04 | 0.08 | 0.08 | 92 | 967.6 |
| 20260507002538 | 66 | 0 | 0.0 | 0.0 | 0.04 | 0.08 | 0.08 | 92 | 967.8 |
| 20260507002033 | 66 | 0 | 0.0 | 0.0 | 0.04 | 0.08 | 0.08 | 92 | 967.7 |
| 20260507001527 | 66 | 0 | 0.0 | 0.0 | 0.03 | 0.07 | 0.07 | 93 | 967.9 |
| 20260507001021 | 66 | 0 | 1.0 | 4.0 | 0.02 | 0.06 | 0.06 | 93 | 968.0 |
| 20260507000515 | 66 | 0 | 1.0 | 4.0 | 0.02 | 0.06 | 0.06 | 93 | 968.2 |
| 20260507000008 | 66 | 53 | 0.0 | 0.0 | 0.01 | 0.05 | 0.05 | 93 | 967.7 |
| 20260506235503 | 66 | 53 | 0.0 | 0.0 | 0.01 | 0.05 | 0.05 | 93 | 967.6 |
| 20260506233438 | 67 | 53 | 0.0 | 0.0 | 0.00 | 0.04 | 0.05 | 93 | 967.1 |
| 20260506232426 | 68 | 53 | 0.0 | 0.0 | 0.00 | 0.04 | 0.04 | 93 | 967.1 |
| 20260506231415 | 68 | 38 | 0.0 | 2.0 | 0.00 | 0.04 | 0.04 | 92 | 967.2 |
| 20260506230908 | 68 | 38 | 0.0 | 2.0 | 0.00 | 0.04 | 0.04 | 92 | 967.4 |